TimeCST,TemperatureF,Dew PointF,Humidity,Sea Level PressureIn,VisibilityMPH,Wind Direction,Wind SpeedMPH,Gust SpeedMPH,PrecipitationIn,Events,Conditions,WindDirDegrees,DateUTC
12:53 AM,50.0,30.9,48,30.18,10.0,NNW,11.5,-,N/A,,Overcast,340,2014-01-15 06:53:00
1:53 AM,48.0,27.0,44,30.19,10.0,NNW,10.4,-,N/A,,Partly Cloudy,340,2014-01-15 07:53:00
2:53 AM,46.9,28.0,48,30.22,10.0,NNW,19.6,25.3,N/A,,Clear,340,2014-01-15 08:53:00
3:53 AM,44.1,28.0,53,30.25,10.0,NNW,12.7,-,N/A,,Partly Cloudy,340,2014-01-15 09:53:00
4:53 AM,41.0,25.0,53,30.25,10.0,NNW,9.2,-,N/A,,Clear,340,2014-01-15 10:53:00
5:53 AM,36.0,25.0,64,30.26,10.0,NW,5.8,-,N/A,,Clear,310,2014-01-15 11:53:00
6:53 AM,34.0,24.1,67,30.26,10.0,Variable,3.5,-,N/A,,Clear,0,2014-01-15 12:53:00
7:53 AM,35.1,26.1,70,30.28,10.0,WNW,5.8,-,N/A,,Clear,290,2014-01-15 13:53:00
8:53 AM,44.1,21.0,40,30.31,10.0,NNW,9.2,-,N/A,,Clear,340,2014-01-15 14:53:00
9:53 AM,46.9,19.0,33,30.31,10.0,NW,13.8,-,N/A,,Clear,320,2014-01-15 15:53:00
10:53 AM,48.9,18.0,29,30.29,10.0,NNW,15.0,21.9,N/A,,Clear,330,2014-01-15 16:53:00
11:53 AM,50.0,17.1,27,30.26,10.0,NW,13.8,24.2,N/A,,Clear,320,2014-01-15 17:53:00
12:53 PM,51.1,16.0,25,30.22,10.0,WNW,23.0,33.4,N/A,,Clear,290,2014-01-15 18:53:00
1:53 PM,50.0,16.0,26,30.21,10.0,WNW,18.4,26.5,N/A,,Clear,300,2014-01-15 19:53:00
2:53 PM,50.0,15.1,25,30.20,10.0,NNW,16.1,26.5,N/A,,Clear,330,2014-01-15 20:53:00
3:53 PM,50.0,16.0,26,30.20,10.0,NW,11.5,-,N/A,,Clear,320,2014-01-15 21:53:00
4:53 PM,46.9,15.1,28,30.21,10.0,NNW,10.4,-,N/A,,Clear,340,2014-01-15 22:53:00
5:53 PM,42.1,17.1,37,30.22,10.0,NW,5.8,-,N/A,,Clear,320,2014-01-15 23:53:00
6:53 PM,39.9,17.1,40,30.24,10.0,Calm,Calm,-,N/A,,Clear,0,2014-01-16 00:53:00
7:53 PM,35.1,21.9,59,30.24,10.0,Calm,Calm,-,N/A,,Clear,0,2014-01-16 01:53:00
8:53 PM,33.1,24.1,70,30.23,10.0,Calm,Calm,-,N/A,,Clear,0,2014-01-16 02:53:00
9:53 PM,30.0,23.0,75,30.22,10.0,Calm,Calm,-,N/A,,Clear,0,2014-01-16 03:53:00
10:53 PM,28.9,23.0,78,30.20,10.0,Calm,Calm,-,N/A,,Clear,0,2014-01-16 04:53:00
11:53 PM,28.0,21.9,78,30.18,10.0,Calm,Calm,-,N/A,,Clear,0,2014-01-16 05:53:00